Location: Unspecified
(40.7945°N, 0.0000°E)
Time: 06:18:12
(UTC+00:00)

Explorer 7 - Pass Details

Date: 29 January 2021
Orbit: 484 x 677 km, 50.3° (Epoch: 07 March)

Event Time Altitude Azimuth Distance (km) Brightness Sun altitude
Rises 08:11:39 0° 304° (NW) 2,654 9.6 9.0°
Reaches altitude 10° 08:13:49 10° 306° (NW) 1,790 8.8 9.3°
Maximum altitude 08:17:53 74° 32° (NNE) 584 7.1 10.0°
Drops below altitude 10° 08:22:13 10° 118° (ESE) 1,903 12.4 10.6°
Sets 08:24:35 0° 120° (ESE) 2,837 12.6 11.0°
